| time (UTC) | temp F | wind direction | speed knots | gust knots | rain 1hr in | rain 24hr in | rain mn in | humidity % | barometer mb |
| 20260507151445 | 55 | 337 | 0.0 | 0.0 | 0.00 | 0.10 | 0.08 | 69 | 1010.8 |
| 20260507150445 | 54 | 337 | 0.0 | 0.0 | 0.00 | 0.12 | 0.08 | 70 | 1010.8 |
| 20260507145341 | 54 | 337 | 0.0 | 0.0 | 0.00 | 0.12 | 0.08 | 69 | 1011.2 |
| 20260507144340 | 54 | 337 | 0.0 | 0.0 | 0.00 | 0.12 | 0.08 | 69 | 1011.2 |
| 20260507143338 | 54 | 337 | 0.0 | 0.0 | 0.00 | 0.12 | 0.08 | 71 | 1011.2 |
| 20260507142336 | 54 | 337 | 0.0 | 0.0 | 0.00 | 0.14 | 0.08 | 74 | 1011.5 |
| 20260507141334 | 54 | 337 | 0.0 | 0.0 | 0.00 | 0.16 | 0.08 | 75 | 1011.5 |
| 20260507140334 | 54 | 0 | 0.0 | 0.0 | 0.00 | 0.16 | 0.08 | 76 | 1011.5 |
| 20260507135305 | 54 | 0 | 0.0 | 0.0 | 0.00 | 0.16 | 0.08 | 76 | 1011.5 |
| 20260507134300 | 54 | 0 | 0.0 | 0.0 | 0.00 | 0.18 | 0.08 | 76 | 1011.5 |
| 20260507133300 | 54 | 0 | 0.0 | 0.0 | 0.00 | 0.20 | 0.08 | 73 | 1011.5 |
| 20260507132259 | 54 | 0 | 0.0 | 0.0 | 0.00 | 0.25 | 0.08 | 75 | 1011.9 |
| 20260507131227 | 54 | 0 | 0.0 | 0.0 | 0.00 | 0.27 | 0.08 | 74 | 1011.5 |
| 20260507130227 | 54 | 0 | 0.0 | 0.0 | 0.00 | 0.27 | 0.08 | 74 | 1011.5 |
| 20260507125226 | 54 | 337 | 0.0 | 0.0 | 0.00 | 0.27 | 0.08 | 76 | 1011.5 |
| 20260507124153 | 54 | 337 | 0.0 | 0.0 | 0.00 | 0.27 | 0.08 | 76 | 1011.2 |
| 20260507123152 | 54 | 337 | 0.0 | 0.0 | 0.00 | 0.27 | 0.08 | 77 | 1011.2 |
| 20260507122120 | 54 | 337 | 0.0 | 0.0 | 0.00 | 0.29 | 0.08 | 78 | 1011.5 |
| 20260507121120 | 54 | 337 | 0.0 | 0.0 | 0.00 | 0.29 | 0.08 | 81 | 1011.2 |
| 20260507120119 | 54 | 337 | 0.0 | 0.0 | 0.00 | 0.29 | 0.08 | 83 | 1011.2 |
| 20260507115047 | 54 | 0 | 0.0 | 0.0 | 0.00 | 0.29 | 0.08 | 87 | 1011.2 |
| 20260507114047 | 54 | 0 | 0.0 | 0.0 | 0.00 | 0.29 | 0.08 | 89 | 1010.8 |
| 20260507113015 | 54 | 0 | 0.0 | 0.0 | 0.00 | 0.29 | 0.08 | 91 | 1010.8 |
| 20260507112014 | 54 | 0 | 0.0 | 0.0 | 0.00 | 0.29 | 0.08 | 92 | 1010.8 |
| 20260507111012 | 54 | 0 | 0.0 | 0.0 | 0.00 | 0.29 | 0.08 | 92 | 1010.8 |
| 20260507110010 | 54 | 0 | 0.0 | 0.0 | 0.00 | 0.29 | 0.08 | 92 | 1010.5 |
| 20260507105010 | 54 | 0 | 0.0 | 0.0 | 0.00 | 0.29 | 0.08 | 92 | 1010.8 |
| 20260507104009 | 54 | 0 | 0.0 | 0.0 | 0.00 | 0.29 | 0.08 | 92 | 1010.5 |
| 20260507103008 | 54 | 0 | 0.0 | 0.0 | 0.00 | 0.29 | 0.08 | 92 | 1010.5 |
| 20260507102008 | 54 | 0 | 0.0 | 0.0 | 0.00 | 0.29 | 0.08 | 92 | 1010.5 |
| 20260507101007 | 54 | 0 | 0.0 | 0.0 | 0.00 | 0.29 | 0.08 | 92 | 1010.5 |
| 20260507100006 | 54 | 0 | 0.0 | 0.0 | 0.00 | 0.29 | 0.08 | 92 | 1010.2 |
| 20260507095005 | 54 | 0 | 0.0 | 0.0 | 0.00 | 0.29 | 0.08 | 92 | 1010.2 |
| 20260507094005 | 54 | 0 | 0.0 | 0.0 | 0.00 | 0.29 | 0.08 | 91 | 1010.2 |
| 20260507093004 | 54 | 0 | 0.0 | 0.0 | 0.00 | 0.29 | 0.08 | 91 | 1010.2 |
| 20260507092002 | 54 | 0 | 0.0 | 0.0 | 0.00 | 0.29 | 0.08 | 91 | 1009.8 |
| 20260507091002 | 54 | 0 | 0.0 | 0.0 | 0.00 | 0.29 | 0.08 | 91 | 1009.8 |
| 20260507090001 | 54 | 0 | 0.0 | 0.0 | 0.00 | 0.29 | 0.08 | 91 | 1010.2 |
| 20260507085001 | 54 | 0 | 0.0 | 0.0 | 0.02 | 0.29 | 0.08 | 91 | 1009.8 |
| 20260507084000 | 54 | 0 | 0.0 | 0.0 | 0.02 | 0.29 | 0.08 | 91 | 1009.5 |
| 20260507082927 | 54 | 0 | 0.0 | 0.0 | 0.02 | 0.29 | 0.08 | 91 | 1009.8 |
| 20260507081855 | 54 | 0 | 0.0 | 0.0 | 0.02 | 0.29 | 0.08 | 90 | 1009.8 |
| 20260507080855 | 55 | 0 | 0.0 | 0.0 | 0.02 | 0.29 | 0.08 | 90 | 1009.8 |
| 20260507075853 | 55 | 0 | 0.0 | 0.0 | 0.00 | 0.27 | 0.06 | 90 | 1009.1 |
| 20260507074852 | 55 | 0 | 0.0 | 0.0 | 0.00 | 0.27 | 0.06 | 90 | 1009.5 |
| 20260507073851 | 55 | 0 | 0.0 | 0.0 | 0.00 | 0.27 | 0.06 | 90 | 1009.5 |
| 20260507072850 | 55 | 0 | 0.0 | 0.0 | 0.00 | 0.27 | 0.06 | 90 | 1009.1 |
| 20260507071849 | 55 | 0 | 0.0 | 0.0 | 0.00 | 0.27 | 0.06 | 90 | 1009.1 |
| 20260507070849 | 55 | 0 | 0.0 | 0.0 | 0.00 | 0.27 | 0.06 | 91 | 1009.1 |
| 20260507065848 | 55 | 22 | 0.0 | 0.0 | 0.00 | 0.27 | 0.06 | 91 | 1009.5 |
| 20260507064846 | 55 | 22 | 0.0 | 0.0 | 0.00 | 0.27 | 0.06 | 91 | 1009.1 |
| 20260507063846 | 55 | 22 | 0.0 | 0.9 | 0.00 | 0.27 | 0.06 | 91 | 1009.5 |
| 20260507062845 | 55 | 22 | 0.0 | 0.0 | 0.02 | 0.27 | 0.06 | 91 | 1009.1 |
| 20260507061844 | 56 | 337 | 0.0 | 0.9 | 0.02 | 0.27 | 0.06 | 91 | 1009.1 |
| 20260507060843 | 56 | 22 | 0.0 | 0.0 | 0.02 | 0.27 | 0.06 | 91 | 1009.1 |
| 20260507055810 | 56 | 0 | 0.0 | 0.0 | 0.02 | 0.27 | 0.06 | 91 | 1009.1 |
| 20260507054809 | 57 | 0 | 0.0 | 0.0 | 0.02 | 0.27 | 0.06 | 90 | 1008.8 |
| 20260507053807 | 57 | 45 | 0.0 | 0.0 | 0.02 | 0.27 | 0.06 | 91 | 1009.1 |
| 20260507052806 | 57 | 0 | 0.0 | 0.0 | 0.02 | 0.25 | 0.04 | 90 | 1009.1 |
| 20260507051805 | 58 | 337 | 1.7 | 1.7 | 0.04 | 0.25 | 0.04 | 90 | 1009.1 |
| 20260507050450 | 58 | 0 | 0.0 | 0.0 | 0.04 | 0.25 | 0.04 | 89 | 1009.5 |
| 20260507045449 | 58 | 0 | 0.0 | 0.9 | 0.04 | 0.25 | 0.04 | 89 | 1009.5 |
| 20260507044448 | 59 | 0 | 0.0 | 0.0 | 0.04 | 0.25 | 0.04 | 88 | 1008.8 |
| 20260507043446 | 60 | 315 | 0.0 | 0.9 | 0.02 | 0.23 | 0.02 | 87 | 1009.5 |
| 20260507042343 | 60 | 270 | 0.0 | 0.0 | 0.02 | 0.23 | 0.02 | 84 | 1009.8 |
| 20260507041310 | 61 | 112 | 0.0 | 1.7 | 0.00 | 0.21 | 0.00 | 83 | 1009.1 |
| 20260507040310 | 62 | 22 | 0.0 | 1.7 | 0.00 | 0.21 | 0.00 | 81 | 1008.8 |
| 20260507035309 | 62 | 45 | 0.0 | 1.7 | 0.00 | 0.21 | 0.21 | 80 | 1009.1 |
| 20260507034308 | 63 | 67 | 0.0 | 0.9 | 0.00 | 0.21 | 0.21 | 79 | 1009.1 |
| 20260507033307 | 63 | 337 | 0.0 | 1.7 | 0.00 | 0.21 | 0.21 | 78 | 1008.8 |
| 20260507032307 | 64 | 22 | 0.0 | 0.9 | 0.00 | 0.21 | 0.21 | 78 | 1009.1 |
| 20260507031306 | 64 | 22 | 0.0 | 1.7 | 0.00 | 0.21 | 0.21 | 80 | 1008.5 |
| 20260507030305 | 65 | 337 | 0.0 | 0.9 | 0.00 | 0.21 | 0.21 | 82 | 1008.1 |
| 20260507025306 | 65 | 22 | 0.9 | 2.6 | 0.00 | 0.21 | 0.21 | 82 | 1008.1 |
| 20260507024303 | 66 | 202 | 0.0 | 0.0 | 0.00 | 0.21 | 0.21 | 84 | 1008.1 |
| 20260507023302 | 66 | 22 | 0.0 | 1.7 | 0.00 | 0.21 | 0.21 | 85 | 1008.1 |
| 20260507022301 | 66 | 22 | 0.0 | 0.0 | 0.00 | 0.21 | 0.21 | 86 | 1007.8 |
| 20260507021228 | 67 | 0 | 0.0 | 0.0 | 0.00 | 0.21 | 0.21 | 87 | 1007.5 |
| 20260507020156 | 66 | 0 | 0.0 | 0.0 | 0.00 | 0.21 | 0.21 | 89 | 1007.8 |
| 20260507015155 | 66 | 0 | 0.0 | 0.0 | 0.00 | 0.21 | 0.21 | 89 | 1007.8 |
| 20260507014155 | 66 | 0 | 0.0 | 0.0 | 0.00 | 0.21 | 0.21 | 89 | 1007.8 |
| 20260507013153 | 66 | 0 | 0.0 | 0.0 | 0.00 | 0.21 | 0.21 | 89 | 1007.5 |
| 20260507012152 | 66 | 0 | 0.0 | 0.0 | 0.00 | 0.21 | 0.21 | 88 | 1007.8 |
| 20260507011151 | 66 | 22 | 0.0 | 0.0 | 0.00 | 0.21 | 0.21 | 88 | 1008.1 |
| 20260507010151 | 66 | 22 | 0.0 | 0.0 | 0.00 | 0.21 | 0.21 | 87 | 1007.8 |
| 20260507005150 | 66 | 22 | 0.0 | 0.0 | 0.00 | 0.21 | 0.21 | 87 | 1007.8 |
| 20260507004150 | 66 | 22 | 0.0 | 0.0 | 0.00 | 0.21 | 0.21 | 87 | 1007.5 |
| 20260507003148 | 66 | 22 | 0.0 | 0.0 | 0.00 | 0.21 | 0.21 | 86 | 1008.1 |
| 20260507002147 | 67 | 22 | 0.0 | 0.0 | 0.00 | 0.21 | 0.21 | 85 | 1007.5 |
| 20260507001115 | 67 | 22 | 0.0 | 0.0 | 0.00 | 0.21 | 0.21 | 85 | 1007.5 |
| 20260507000114 | 68 | 22 | 0.0 | 0.0 | 0.00 | 0.21 | 0.21 | 84 | 1007.5 |
| 20260506235113 | 68 | 22 | 0.0 | 0.0 | 0.00 | 0.21 | 0.21 | 84 | 1007.5 |
| 20260506234112 | 68 | 22 | 0.0 | 0.0 | 0.00 | 0.21 | 0.21 | 83 | 1007.1 |
| 20260506233111 | 68 | 22 | 0.0 | 0.0 | 0.00 | 0.21 | 0.21 | 83 | 1006.8 |
| 20260506232111 | 69 | 135 | 0.0 | 0.0 | 0.00 | 0.21 | 0.21 | 82 | 1006.8 |
| 20260506231110 | 69 | 135 | 0.0 | 0.0 | 0.00 | 0.21 | 0.21 | 81 | 1006.8 |
| 20260506230109 | 69 | 135 | 0.9 | 1.7 | 0.00 | 0.21 | 0.21 | 81 | 1006.8 |
| 20260506225108 | 69 | 135 | 1.7 | 1.7 | 0.00 | 0.21 | 0.21 | 81 | 1006.8 |
| 20260506224035 | 69 | 157 | 0.0 | 1.7 | 0.00 | 0.21 | 0.21 | 81 | 1006.4 |
| 20260506223003 | 69 | 90 | 0.0 | 2.6 | 0.00 | 0.21 | 0.21 | 81 | 1006.8 |
| 20260506222002 | 69 | 247 | 2.6 | 2.6 | 0.00 | 0.21 | 0.21 | 81 | 1006.8 |
| 20260506220859 | 69 | 225 | 2.6 | 2.6 | 0.00 | 0.21 | 0.21 | 81 | 1006.8 |
| 20260506215859 | 69 | 112 | 2.6 | 3.5 | 0.00 | 0.21 | 0.21 | 81 | 1006.8 |
| 20260506214857 | 69 | 337 | 0.0 | 1.7 | 0.00 | 0.21 | 0.21 | 81 | 1006.8 |
| 20260506213856 | 69 | 157 | 3.5 | 3.5 | 0.00 | 0.21 | 0.21 | 80 | 1006.8 |
| 20260506212856 | 70 | 157 | 2.6 | 3.5 | 0.00 | 0.21 | 0.21 | 80 | 1006.8 |
| 20260506211854 | 70 | 112 | 3.5 | 3.5 | 0.00 | 0.21 | 0.21 | 80 | 1006.8 |
| 20260506210853 | 70 | 202 | 0.0 | 3.5 | 0.00 | 0.21 | 0.21 | 80 | 1006.8 |
| 20260506205852 | 69 | 67 | 4.3 | 5.2 | 0.00 | 0.21 | 0.21 | 81 | 1006.4 |
| 20260506204852 | 69 | 225 | 1.7 | 8.7 | 0.00 | 0.21 | 0.21 | 81 | 1006.4 |
| 20260506203820 | 70 | 135 | 3.5 | 3.5 | 0.00 | 0.21 | 0.21 | 81 | 1006.4 |
| 20260506202818 | 70 | 292 | 1.7 | 2.6 | 0.00 | 0.21 | 0.21 | 81 | 1006.4 |
| 20260506201817 | 69 | 292 | 0.9 | 5.2 | 0.00 | 0.21 | 0.21 | 82 | 1006.4 |
| 20260506200816 | 68 | 90 | 0.0 | 3.5 | 0.00 | 0.21 | 0.21 | 82 | 1006.4 |
| 20260506195815 | 68 | 135 | 1.7 | 5.2 | 0.00 | 0.21 | 0.21 | 82 | 1006.4 |
| 20260506194814 | 68 | 225 | 6.1 | 6.1 | 0.00 | 0.21 | 0.21 | 83 | 1006.4 |
| 20260506193743 | 68 | 180 | 4.3 | 4.3 | 0.00 | 0.21 | 0.21 | 83 | 1006.4 |
| 20260506192742 | 67 | 45 | 0.9 | 7.8 | 0.00 | 0.21 | 0.21 | 83 | 1006.4 |
| 20260506191710 | 67 | 112 | 7.8 | 7.8 | 0.00 | 0.21 | 0.21 | 84 | 1006.8 |
| 20260506190710 | 67 | 180 | 3.5 | 9.6 | 0.00 | 0.21 | 0.21 | 84 | 1007.1 |
| 20260506185709 | 67 | 202 | 2.6 | 2.6 | 0.00 | 0.21 | 0.21 | 84 | 1007.1 |
| 20260506184708 | 67 | 135 | 3.5 | 3.5 | 0.00 | 0.21 | 0.21 | 84 | 1007.5 |
| 20260506183707 | 67 | 157 | 3.5 | 3.5 | 0.00 | 0.21 | 0.21 | 85 | 1007.5 |
| 20260506182706 | 66 | 247 | 1.7 | 4.3 | 0.00 | 0.21 | 0.21 | 85 | 1007.1 |
| 20260506181706 | 66 | 180 | 3.5 | 3.5 | 0.00 | 0.21 | 0.21 | 86 | 1007.5 |
| 20260506180705 | 66 | 270 | 1.7 | 3.5 | 0.00 | 0.21 | 0.21 | 86 | 1007.8 |
| 20260506175703 | 66 | 90 | 0.0 | 1.7 | 0.00 | 0.21 | 0.21 | 87 | 1007.5 |
| 20260506174702 | 65 | 270 | 1.7 | 2.6 | 0.00 | 0.21 | 0.21 | 87 | 1007.5 |
| 20260506173701 | 65 | 180 | 0.0 | 4.3 | 0.00 | 0.21 | 0.21 | 88 | 1007.5 |
| 20260506172700 | 64 | 247 | 4.3 | 4.3 | 0.00 | 0.21 | 0.21 | 88 | 1007.5 |
| 20260506171658 | 64 | 157 | 3.5 | 3.5 | 0.00 | 0.21 | 0.21 | 89 | 1007.8 |
| 20260506170656 | 64 | 157 | 2.6 | 4.3 | 0.00 | 0.21 | 0.21 | 89 | 1007.8 |
| 20260506165656 | 64 | 247 | 0.9 | 4.3 | 0.00 | 0.21 | 0.21 | 90 | 1008.1 |
| 20260506164655 | 64 | 112 | 4.3 | 4.3 | 0.00 | 0.21 | 0.21 | 90 | 1008.1 |
| 20260506163654 | 64 | 225 | 3.5 | 3.5 | 0.00 | 0.21 | 0.21 | 91 | 1008.1 |
| 20260506162653 | 63 | 202 | 0.0 | 4.3 | 0.00 | 0.21 | 0.21 | 91 | 1008.1 |
| 20260506161652 | 62 | 180 | 0.0 | 3.5 | 0.00 | 0.21 | 0.21 | 91 | 1008.1 |
| 20260506160547 | 62 | 112 | 1.7 | 2.6 | 0.02 | 0.21 | 0.21 | 91 | 1007.8 |
| 20260506155547 | 62 | 112 | 5.2 | 5.2 | 0.04 | 0.21 | 0.21 | 91 | 1008.1 |
| 20260506154545 | 61 | 180 | 4.3 | 4.3 | 0.04 | 0.21 | 0.21 | 91 | 1008.5 |
| 20260506153513 | 61 | 90 | 4.3 | 7.0 | 0.04 | 0.21 | 0.21 | 91 | 1008.5 |
| 20260506152512 | 61 | 180 | 0.0 | 7.8 | 0.06 | 0.21 | 0.21 | 91 | 1008.1 |